DLH061 EDFH-EDDH

Flight info

Callsign DLH061
Flight time 1h 1m
Altitude 23000
Route ULKIG1T ULKIG Z100 RUDUS Z10 GISEM/N0422F240 N850 WRB P12 NORTA P605 NOLGO NOLGO6A
Aircraft A320/M-SDE3FGHIRWY/LB1

Departure

Time 2026-04-21 17:35
Airport Frankfurt-Hahn Airport (EDFH)

Arrival

Time 2026-04-21 18:37
Airport Hamburg Helmut Schmidt Airport (EDDH)
Time Latitude Longitude Altitude Speed Heading
2026-04-21 17:00 49.94891 7.27098 1646 ft 0 kts 122°
2026-04-21 17:24 49.94896 7.27086 1646 ft 2 kts 122°
2026-04-21 17:24 49.94904 7.27065 1646 ft 2 kts 123°
2026-04-21 17:24 49.94913 7.27043 1646 ft 2 kts 124°
2026-04-21 17:24 49.94923 7.27023 1646 ft 2 kts 126°
2026-04-21 17:25 49.94933 7.27002 1646 ft 2 kts 130°
2026-04-21 17:25 49.94943 7.26983 1646 ft 2 kts 117°
2026-04-21 17:25 49.94946 7.26958 1646 ft 2 kts 59°
2026-04-21 17:25 49.94942 7.26947 1647 ft 0 kts 44°
2026-04-21 17:26 49.94938 7.26927 1647 ft 2 kts 178°
2026-04-21 17:26 49.94950 7.26948 1646 ft 4 kts 220°
2026-04-21 17:26 49.94954 7.26955 1646 ft 0 kts 212°
2026-04-21 17:29 49.94935 7.26936 1646 ft 9 kts 212°
2026-04-21 17:30 49.94890 7.26892 1647 ft 7 kts 212°
2026-04-21 17:30 49.94857 7.26859 1648 ft 5 kts 212°
2026-04-21 17:30 49.94836 7.26838 1648 ft 3 kts 212°
2026-04-21 17:30 49.94793 7.26795 1649 ft 19 kts 213°
2026-04-21 17:31 49.94683 7.26686 1650 ft 18 kts 212°
2026-04-21 17:31 49.94579 7.26648 1652 ft 14 kts 182°
2026-04-21 17:31 49.94501 7.26578 1653 ft 12 kts 213°
2026-04-21 17:31 49.94431 7.26507 1660 ft 18 kts 213°
2026-04-21 17:32 49.94351 7.26425 1655 ft 0 kts 215°
2026-04-21 17:32 49.94338 7.26411 1661 ft 10 kts 215°
2026-04-21 17:32 49.94227 7.26297 1662 ft 29 kts 214°
2026-04-21 17:33 49.94047 7.26113 1663 ft 27 kts 213°
2026-04-21 17:33 49.93929 7.25991 1662 ft 19 kts 213°
2026-04-21 17:33 49.93829 7.25886 1663 ft 16 kts 223°
2026-04-21 17:33 49.93848 7.25762 1674 ft 0 kts 302°
2026-04-21 17:34 49.93854 7.25746 1672 ft 10 kts 302°
2026-04-21 17:34 49.93930 7.25560 1666 ft 19 kts 304°
2026-04-21 17:34 49.94027 7.25561 1674 ft 18 kts 32°
2026-04-21 17:35 49.94268 7.25799 1665 ft 78 kts 32°
2026-04-21 17:35 49.94937 7.26459 1650 ft 148 kts 31°
2026-04-21 17:35 49.95887 7.27403 2260 ft 169 kts 36°
2026-04-21 17:35 49.96945 7.28488 3005 ft 196 kts 36°
2026-04-21 17:36 49.98171 7.29708 3893 ft 222 kts 34°
2026-04-21 17:36 49.99555 7.31065 4776 ft 251 kts 34°
2026-04-21 17:36 50.01171 7.32638 5110 ft 300 kts 33°
2026-04-21 17:36 50.03199 7.33997 5184 ft 334 kts 13°
2026-04-21 17:37 50.05283 7.33788 5196 ft 278 kts 342°
2026-04-21 17:37 50.06745 7.31975 5361 ft 275 kts 306°
2026-04-21 17:37 50.07313 7.29129 5505 ft 283 kts 271°
2026-04-21 17:37 50.06774 7.26205 5652 ft 286 kts 235°
2026-04-21 17:38 50.05302 7.24129 5838 ft 283 kts 206°
2026-04-21 17:38 50.03487 7.23151 6004 ft 279 kts 184°
2026-04-21 17:38 50.01580 7.23282 6242 ft 270 kts 161°
2026-04-21 17:38 49.99927 7.24391 6903 ft 244 kts 142°
2026-04-21 17:39 49.98541 7.25955 7568 ft 257 kts 140°
2026-04-21 17:39 49.97058 7.27580 8248 ft 265 kts 141°
2026-04-21 17:39 49.95612 7.29400 8951 ft 271 kts 135°
2026-04-21 17:39 49.94207 7.31399 9657 ft 276 kts 130°
2026-04-21 17:40 49.93075 7.33817 10353 ft 279 kts 115°
2026-04-21 17:40 49.92379 7.36632 10978 ft 283 kts 102°
2026-04-21 17:40 49.91933 7.39619 11803 ft 285 kts 101°
2026-04-21 17:40 49.91482 7.42622 12751 ft 288 kts 101°
2026-04-21 17:41 49.91022 7.45658 13738 ft 290 kts 102°
2026-04-21 17:41 49.90554 7.48710 14655 ft 291 kts 102°
2026-04-21 17:41 49.90082 7.51768 15568 ft 292 kts 101°
2026-04-21 17:41 49.89612 7.54831 16504 ft 292 kts 101°
2026-04-21 17:42 49.89143 7.57884 17471 ft 290 kts 101°
2026-04-21 17:42 49.88675 7.60913 18471 ft 288 kts 101°
2026-04-21 17:42 49.88213 7.63909 19343 ft 283 kts 100°
2026-04-21 17:42 49.87758 7.66875 20258 ft 282 kts 101°
2026-04-21 17:43 49.87301 7.69827 21191 ft 280 kts 100°
2026-04-21 17:43 49.86848 7.72735 22171 ft 275 kts 100°
2026-04-21 17:43 49.86394 7.75569 23136 ft 270 kts 101°
2026-04-21 17:43 49.85940 7.78421 23749 ft 274 kts 100°
2026-04-21 17:44 49.85481 7.81340 24125 ft 287 kts 101°
2026-04-21 17:44 49.84996 7.84463 24215 ft 310 kts 101°
2026-04-21 17:44 49.84500 7.87855 24279 ft 333 kts 95°
2026-04-21 17:44 49.84624 7.91441 24557 ft 341 kts 71°
2026-04-21 17:45 49.85721 7.94728 24755 ft 351 kts 47°
2026-04-21 17:45 49.87637 7.97107 24959 ft 361 kts 27°
2026-04-21 17:45 49.89986 7.98934 24403 ft 396 kts 27°
2026-04-21 17:45 49.92403 8.01197 24257 ft 406 kts 30°
2026-04-21 17:46 49.94828 8.03335 24081 ft 396 kts 28°
2026-04-21 17:46 49.97157 8.05490 24084 ft 383 kts 35°
2026-04-21 17:46 49.99285 8.07849 24217 ft 367 kts 34°
2026-04-21 17:46 50.01361 8.10060 24229 ft 356 kts 33°
2026-04-21 17:47 50.03373 8.12200 24231 ft 346 kts 33°
2026-04-21 17:47 50.05333 8.14287 24236 ft 336 kts 33°
2026-04-21 17:47 50.07232 8.16313 24236 ft 326 kts 33°
2026-04-21 17:47 50.09078 8.18286 24235 ft 317 kts 33°
2026-04-21 17:48 50.10272 8.19561 24236 ft 312 kts 33°
2026-04-21 17:48 50.12594 8.22047 24238 ft 300 kts 34°
2026-04-21 17:48 50.14330 8.23742 24243 ft 291 kts 26°
2026-04-21 17:48 50.16185 8.24903 24244 ft 283 kts 21°
2026-04-21 17:49 50.18012 8.25913 24243 ft 274 kts 21°
2026-04-21 17:49 50.19775 8.26922 24243 ft 266 kts 23°
2026-04-21 17:49 50.21458 8.27982 24243 ft 256 kts 24°
2026-04-21 17:49 50.23074 8.29012 24249 ft 246 kts 24°
2026-04-21 17:50 50.24629 8.30001 24248 ft 236 kts 24°
2026-04-21 17:50 50.26158 8.30970 24234 ft 246 kts 24°
2026-04-21 17:50 50.27831 8.32038 24247 ft 273 kts 24°
2026-04-21 17:50 50.29677 8.33229 24256 ft 300 kts 24°
2026-04-21 17:51 50.31677 8.34529 24251 ft 327 kts 24°
2026-04-21 17:51 50.33842 8.35943 24249 ft 352 kts 24°
2026-04-21 17:51 50.36212 8.37485 24251 ft 375 kts 24°
2026-04-21 17:51 50.38692 8.39066 24251 ft 394 kts 24°
2026-04-21 17:52 50.41271 8.40712 24254 ft 408 kts 24°
2026-04-21 17:52 50.43942 8.42423 24254 ft 420 kts 24°
2026-04-21 17:52 50.46684 8.44183 24254 ft 431 kts 24°
2026-04-21 17:52 50.49491 8.45991 24257 ft 440 kts 24°
2026-04-21 17:53 50.52349 8.47836 24257 ft 448 kts 24°
2026-04-21 17:53 50.55249 8.49712 24257 ft 453 kts 24°
2026-04-21 17:53 50.58182 8.51601 24255 ft 457 kts 24°
2026-04-21 17:53 50.61142 8.53455 24259 ft 459 kts 24°
2026-04-21 17:54 50.64115 8.55307 24259 ft 461 kts 24°
2026-04-21 17:54 50.67105 8.57172 24266 ft 462 kts 24°
2026-04-21 17:54 50.70094 8.59039 24265 ft 463 kts 24°
2026-04-21 17:54 50.73084 8.60908 24264 ft 463 kts 24°
2026-04-21 17:55 50.76077 8.62780 24267 ft 463 kts 24°
2026-04-21 17:55 50.79081 8.64659 24267 ft 464 kts 24°
2026-04-21 17:55 50.82081 8.66539 24269 ft 464 kts 24°
2026-04-21 17:55 50.85081 8.68421 24269 ft 464 kts 24°
2026-04-21 17:56 50.88079 8.70303 24266 ft 462 kts 24°
2026-04-21 17:56 50.90996 8.72128 24263 ft 440 kts 24°
2026-04-21 17:56 50.93782 8.73864 24265 ft 422 kts 24°
2026-04-21 17:56 50.96413 8.75705 24266 ft 406 kts 28°
2026-04-21 17:57 50.98901 8.77648 24267 ft 392 kts 29°
2026-04-21 17:57 51.01306 8.79543 24260 ft 379 kts 29°
2026-04-21 17:57 51.03641 8.81348 24265 ft 368 kts 29°
2026-04-21 17:57 51.05917 8.83096 24269 ft 358 kts 29°
2026-04-21 17:58 51.08141 8.84797 24267 ft 352 kts 29°
2026-04-21 17:58 51.10328 8.86467 24266 ft 345 kts 29°
2026-04-21 17:58 51.12472 8.88101 24268 ft 339 kts 28°
2026-04-21 17:58 51.14578 8.89708 24264 ft 333 kts 29°
2026-04-21 17:59 51.16649 8.91281 24264 ft 326 kts 29°
2026-04-21 17:59 51.18680 8.92820 24269 ft 321 kts 29°
2026-04-21 17:59 51.20682 8.94334 24268 ft 316 kts 29°
2026-04-21 17:59 51.22650 8.95818 24266 ft 311 kts 29°
2026-04-21 18:00 51.24594 8.97260 24261 ft 305 kts 29°
2026-04-21 18:00 51.26514 8.98648 24266 ft 300 kts 29°
2026-04-21 18:00 51.28407 9.00006 24268 ft 296 kts 29°
2026-04-21 18:00 51.30268 9.01335 24268 ft 291 kts 29°
2026-04-21 18:01 51.31486 9.02200 24270 ft 287 kts 29°
2026-04-21 18:01 51.34014 9.03521 24280 ft 285 kts 20°
2026-04-21 18:01 51.35277 9.04044 24280 ft 281 kts 20°
2026-04-21 18:01 51.37151 9.04845 24280 ft 277 kts 21°
2026-04-21 18:02 51.38994 9.05641 24280 ft 272 kts 21°
2026-04-21 18:02 51.40805 9.06419 24280 ft 267 kts 21°
2026-04-21 18:02 51.42589 9.07181 24280 ft 262 kts 21°
2026-04-21 18:02 51.44336 9.07922 24282 ft 258 kts 21°
2026-04-21 18:03 51.46053 9.08643 24272 ft 252 kts 21°
2026-04-21 18:03 51.47736 9.09329 24282 ft 247 kts 21°
2026-04-21 18:03 51.49383 9.09986 24285 ft 241 kts 21°
2026-04-21 18:03 51.50986 9.10616 24284 ft 234 kts 21°
2026-04-21 18:04 51.52427 9.11700 23971 ft 234 kts 51°
2026-04-21 18:04 51.53398 9.13870 23943 ft 242 kts 59°
2026-04-21 18:04 51.54388 9.16158 24187 ft 257 kts 56°
2026-04-21 18:04 51.55304 9.18724 24281 ft 275 kts 66°
2026-04-21 18:05 51.56155 9.21618 24294 ft 298 kts 63°
2026-04-21 18:05 51.57327 9.24519 24296 ft 321 kts 55°
2026-04-21 18:05 51.58772 9.27406 24296 ft 342 kts 52°
2026-04-21 18:05 51.60391 9.30357 24290 ft 362 kts 50°
2026-04-21 18:06 51.62122 9.33437 24292 ft 379 kts 50°
2026-04-21 18:06 51.63912 9.36665 24297 ft 394 kts 51°
2026-04-21 18:06 51.65740 9.40039 24290 ft 406 kts 51°
2026-04-21 18:06 51.67597 9.43549 24273 ft 417 kts 52°
2026-04-21 18:07 51.69460 9.47130 24295 ft 425 kts 52°
2026-04-21 18:07 51.71382 9.50862 24293 ft 433 kts 52°
2026-04-21 18:07 51.73316 9.54630 24297 ft 438 kts 52°
2026-04-21 18:07 51.75272 9.58437 24292 ft 442 kts 52°
2026-04-21 18:08 51.77214 9.62212 24283 ft 431 kts 52°
2026-04-21 18:08 51.79115 9.65894 24292 ft 423 kts 52°
2026-04-21 18:08 51.80981 9.69512 24296 ft 416 kts 52°
2026-04-21 18:08 51.82821 9.73085 24297 ft 411 kts 52°
2026-04-21 18:09 51.84823 9.76355 24308 ft 409 kts 43°
2026-04-21 18:09 51.87152 9.78986 24303 ft 409 kts 33°
2026-04-21 18:09 51.89745 9.80901 24298 ft 410 kts 24°
2026-04-21 18:09 51.92510 9.82050 24303 ft 412 kts 14°
2026-04-21 18:10 51.95352 9.82624 24305 ft 410 kts 12°
2026-04-21 18:10 51.98175 9.83165 24310 ft 407 kts 12°
2026-04-21 18:10 52.00975 9.83705 24307 ft 404 kts 12°
2026-04-21 18:10 52.03758 9.84246 24309 ft 401 kts 12°
2026-04-21 18:11 52.06479 9.84782 24315 ft 398 kts 12°
2026-04-21 18:11 52.09222 9.85320 24311 ft 396 kts 12°
2026-04-21 18:11 52.11982 9.85861 24297 ft 393 kts 12°
2026-04-21 18:11 52.14689 9.86389 24307 ft 391 kts 12°
2026-04-21 18:12 52.17387 9.86913 24308 ft 389 kts 12°
2026-04-21 18:12 52.20067 9.87434 24311 ft 388 kts 12°
2026-04-21 18:12 52.22706 9.87945 24312 ft 387 kts 11°
2026-04-21 18:12 52.25412 9.87752 24310 ft 399 kts 351°
2026-04-21 18:13 52.28002 9.85993 24311 ft 406 kts 339°
2026-04-21 18:13 52.30599 9.84298 24310 ft 399 kts 347°
2026-04-21 18:13 52.33238 9.82908 24307 ft 398 kts 348°
2026-04-21 18:13 52.35869 9.81541 24288 ft 397 kts 348°
2026-04-21 18:14 52.41128 9.78778 24312 ft 396 kts 348°
2026-04-21 18:14 52.43752 9.77394 24310 ft 395 kts 348°
2026-04-21 18:14 52.46403 9.76534 24305 ft 384 kts
2026-04-21 18:15 52.49045 9.76660 24306 ft 376 kts 13°
2026-04-21 18:15 52.51632 9.77238 24307 ft 375 kts 14°
2026-04-21 18:15 52.54211 9.77858 24308 ft 374 kts 15°
2026-04-21 18:15 52.56691 9.78926 24313 ft 368 kts 24°
2026-04-21 18:16 52.59124 9.80268 24312 ft 367 kts 24°
2026-04-21 18:16 52.61545 9.81620 24304 ft 367 kts 24°
2026-04-21 18:16 52.63963 9.82967 24309 ft 367 kts 24°
2026-04-21 18:16 52.66380 9.84314 24311 ft 367 kts 24°
2026-04-21 18:17 52.68815 9.85676 23955 ft 376 kts 24°
2026-04-21 18:17 52.71352 9.87119 23131 ft 395 kts 24°
2026-04-21 18:17 52.73996 9.88661 22304 ft 411 kts 24°
2026-04-21 18:17 52.76737 9.90299 21494 ft 427 kts 24°
2026-04-21 18:18 52.79567 9.92025 20699 ft 439 kts 24°
2026-04-21 18:18 52.82379 9.93759 20143 ft 409 kts 24°
2026-04-21 18:18 52.84906 9.95297 19391 ft 369 kts 24°
2026-04-21 18:18 52.87208 9.96682 18665 ft 335 kts 24°
2026-04-21 18:19 52.89307 9.97933 17843 ft 308 kts 24°
2026-04-21 18:19 52.91255 9.99087 17052 ft 288 kts 24°
2026-04-21 18:19 52.93092 10.00173 16265 ft 272 kts 24°
2026-04-21 18:19 52.94830 10.01201 15557 ft 257 kts 24°
2026-04-21 18:20 52.96413 10.02128 15359 ft 224 kts 26°
2026-04-21 18:20 52.97759 10.02966 15286 ft 190 kts 26°
2026-04-21 18:20 52.99012 10.03751 15172 ft 206 kts 26°
2026-04-21 18:20 53.00450 10.04704 15103 ft 238 kts 27°
2026-04-21 18:21 53.02009 10.05777 15262 ft 242 kts 27°
2026-04-21 18:21 53.03572 10.06873 15458 ft 248 kts 27°
2026-04-21 18:21 53.05217 10.08005 15367 ft 261 kts 26°
2026-04-21 18:21 53.06899 10.09139 15315 ft 259 kts 26°
2026-04-21 18:22 53.08564 10.10254 15321 ft 256 kts 26°
2026-04-21 18:22 53.10207 10.11352 15324 ft 253 kts 26°
2026-04-21 18:22 53.11859 10.12326 15326 ft 254 kts 14°
2026-04-21 18:22 53.13637 10.12257 15259 ft 261 kts 357°
2026-04-21 18:23 53.15500 10.11715 14673 ft 283 kts 354°
2026-04-21 18:23 53.17520 10.11094 13852 ft 308 kts 354°
2026-04-21 18:23 53.19727 10.10451 12752 ft 329 kts 354°
2026-04-21 18:23 53.22075 10.09800 11697 ft 353 kts 354°
2026-04-21 18:24 53.24559 10.09147 10690 ft 363 kts 354°
2026-04-21 18:24 53.26911 10.08534 9654 ft 324 kts 354°
2026-04-21 18:24 53.29117 10.07961 8587 ft 325 kts 354°
2026-04-21 18:24 53.31429 10.07384 7552 ft 346 kts 354°
2026-04-21 18:25 53.33714 10.06822 6427 ft 317 kts 354°
2026-04-21 18:25 53.35834 10.06302 5077 ft 298 kts 354°
2026-04-21 18:25 53.37767 10.05838 4463 ft 261 kts 354°
2026-04-21 18:25 53.39499 10.05395 4230 ft 252 kts 352°
2026-04-21 18:26 53.41098 10.04214 4098 ft 257 kts 323°
2026-04-21 18:26 53.42164 10.01818 3988 ft 260 kts 292°
2026-04-21 18:26 53.42504 9.98906 3997 ft 256 kts 276°
2026-04-21 18:26 53.42646 9.95939 4004 ft 252 kts 275°
2026-04-21 18:27 53.42764 9.93039 4011 ft 247 kts 274°
2026-04-21 18:27 53.42875 9.90179 4013 ft 245 kts 274°
2026-04-21 18:27 53.42983 9.87330 4013 ft 244 kts 274°
2026-04-21 18:27 53.43092 9.84501 4010 ft 244 kts 274°
2026-04-21 18:28 53.43196 9.81672 4010 ft 242 kts 274°
2026-04-21 18:28 53.43299 9.78856 4010 ft 241 kts 274°
2026-04-21 18:28 53.43399 9.76056 4011 ft 240 kts 274°
2026-04-21 18:28 53.43497 9.73302 4006 ft 225 kts 274°
2026-04-21 18:29 53.43585 9.70885 4025 ft 191 kts 277°
2026-04-21 18:29 53.44036 9.69035 3990 ft 159 kts 321°
2026-04-21 18:29 53.44929 9.68441 3889 ft 131 kts 12°
2026-04-21 18:29 53.45816 9.68915 3391 ft 141 kts 30°
2026-04-21 18:30 53.46703 9.69726 3009 ft 138 kts 33°
2026-04-21 18:30 53.47461 9.70462 2990 ft 116 kts 34°
2026-04-21 18:30 53.48131 9.71103 2958 ft 109 kts 34°
2026-04-21 18:30 53.48836 9.71777 3011 ft 127 kts 33°
2026-04-21 18:31 53.49647 9.72568 3325 ft 140 kts 33°
2026-04-21 18:31 53.50493 9.73417 3078 ft 149 kts 34°
2026-04-21 18:31 53.51370 9.74324 3004 ft 143 kts 40°
2026-04-21 18:31 53.52048 9.75457 3003 ft 133 kts 52°
2026-04-21 18:32 53.52608 9.76650 3004 ft 127 kts 55°
2026-04-21 18:32 53.53132 9.77814 3005 ft 123 kts 55°
2026-04-21 18:32 53.53639 9.78940 3004 ft 119 kts 55°
2026-04-21 18:32 53.54129 9.80025 3001 ft 115 kts 55°
2026-04-21 18:33 53.54606 9.81076 2999 ft 113 kts 55°
2026-04-21 18:33 53.55105 9.82184 3032 ft 129 kts 55°
2026-04-21 18:33 53.55650 9.83414 3003 ft 122 kts 56°
2026-04-21 18:33 53.56131 9.84489 2723 ft 117 kts 58°
2026-04-21 18:34 53.56626 9.85670 2170 ft 129 kts 55°
2026-04-21 18:34 53.57186 9.86906 1593 ft 134 kts 52°
2026-04-21 18:34 53.57727 9.88046 1398 ft 116 kts 52°
2026-04-21 18:34 53.58207 9.89038 1251 ft 107 kts 51°
2026-04-21 18:35 53.58533 9.89704 1156 ft 112 kts 51°
2026-04-21 18:35 53.59225 9.91114 953 ft 123 kts 51°
2026-04-21 18:35 53.59792 9.92262 765 ft 131 kts 51°
2026-04-21 18:35 53.60389 9.93470 588 ft 137 kts 50°
2026-04-21 18:36 53.61004 9.94714 389 ft 134 kts 50°
2026-04-21 18:36 53.61584 9.95876 169 ft 122 kts 49°
2026-04-21 18:36 53.62109 9.96951 51 ft 117 kts 50°
2026-04-21 18:36 53.62566 9.97867 43 ft 82 kts 50°
2026-04-21 18:37 53.62874 9.98490 44 ft 59 kts 50°
2026-04-21 18:37 53.63042 9.98827 43 ft 29 kts 50°
2026-04-21 18:37 53.63160 9.99066 46 ft 25 kts 51°
2026-04-21 18:37 53.63281 9.99314 47 ft 37 kts 50°
2026-04-21 18:38 53.63452 9.99658 44 ft 32 kts 50°
2026-04-21 18:38 53.63575 9.99908 46 ft 34 kts 50°
2026-04-21 18:38 53.63566 10.00080 46 ft 8 kts 140°
2026-04-21 18:38 53.63564 10.00083 46 ft 0 kts 141°
2026-04-21 18:39 53.63539 10.00117 46 ft 9 kts 141°
2026-04-21 18:39 53.63491 10.00184 46 ft 9 kts 140°
2026-04-21 18:40 53.63451 10.00232 46 ft 7 kts 131°
2026-04-21 18:40 53.63443 10.00268 46 ft 1 kts 86°
2026-04-21 18:40 53.63450 10.00301 46 ft 6 kts 82°
2026-04-21 18:40 53.63452 10.00331 46 ft 0 kts 86°